| time (UTC) | temp C | wind direction | speed KPH | gust KPH | rain 1hr cm | rain 24hr cm | rain mn cm | humidity % | barometer mb |
| 20260506200716 | 20 | 77 | 0.0 | 6.4 | 0.00 | 0.00 | 0.00 | 72 | 1018.0 |
| 20260506195641 | 20 | 177 | 0.0 | 6.4 | 0.00 | 0.00 | 0.00 | 71 | 1018.1 |
| 20260506194626 | 20 | 160 | 0.0 | 4.8 | 0.00 | 0.00 | 0.00 | 70 | 1018.1 |
| 20260506193604 | 20 | 150 | 0.0 | 4.8 | 0.00 | 0.00 | 0.00 | 72 | 1018.2 |
| 20260506192536 | 20 | 304 | 1.6 | 8.0 | 0.00 | 0.00 | 0.00 | 70 | 1018.3 |
| 20260506191553 | 20 | 92 | 0.0 | 8.0 | 0.00 | 0.00 | 0.00 | 73 | 1018.4 |
| 20260506190601 | 20 | 192 | 0.0 | 6.4 | 0.00 | 0.00 | 0.00 | 70 | 1018.4 |
| 20260506184449 | 20 | 244 | 0.0 | 3.2 | 0.00 | 0.00 | 0.00 | 70 | 1018.4 |
| 20260506183444 | 20 | 88 | 0.0 | 6.4 | 0.00 | 0.00 | 0.00 | 73 | 1018.5 |
| 20260506182417 | 19 | 88 | 0.0 | 6.4 | 0.00 | 0.00 | 0.00 | 70 | 1018.6 |
| 20260506181408 | 19 | 35 | 0.0 | 8.0 | 0.00 | 0.00 | 0.00 | 72 | 1018.6 |
| 20260506180432 | 19 | 109 | 0.0 | 8.0 | 0.00 | 0.00 | 0.00 | 72 | 1018.6 |
| 20260506175433 | 18 | 43 | 0.0 | 1.6 | 0.00 | 0.00 | 0.00 | 76 | 1018.5 |
| 20260506174448 | 17 | 91 | 0.0 | 0.0 | 0.00 | 0.00 | 0.00 | 75 | 1018.6 |
| 20260506173455 | 17 | 240 | 0.0 | 6.4 | 0.00 | 0.00 | 0.00 | 74 | 1018.6 |
| 20260506172451 | 18 | 265 | 0.0 | 4.8 | 0.00 | 0.00 | 0.00 | 74 | 1018.6 |
| 20260506171446 | 18 | 198 | 0.0 | 3.2 | 0.00 | 0.00 | 0.00 | 74 | 1018.7 |
| 20260506170431 | 17 | 98 | 0.0 | 4.8 | 0.00 | 0.00 | 0.00 | 75 | 1018.8 |
| 20260506165411 | 17 | 53 | 0.0 | 3.2 | 0.00 | 0.00 | 0.00 | 74 | 1018.7 |
| 20260506164341 | 17 | 165 | 0.0 | 3.2 | 0.00 | 0.00 | 0.00 | 75 | 1018.7 |
| 20260506163329 | 16 | 124 | 0.0 | 3.2 | 0.00 | 0.00 | 0.00 | 79 | 1018.7 |
| 20260506161224 | 16 | 306 | 0.0 | 1.6 | 0.00 | 0.00 | 0.00 | 80 | 1018.7 |
| 20260506160222 | 15 | 96 | 0.0 | 3.2 | 0.00 | 0.00 | 0.00 | 80 | 1018.9 |
| 20260506155201 | 15 | 154 | 0.0 | 3.2 | 0.00 | 0.00 | 0.00 | 81 | 1018.9 |
| 20260506154222 | 14 | 71 | 0.0 | 3.2 | 0.00 | 0.00 | 0.00 | 83 | 1018.9 |
| 20260506153150 | 14 | 148 | 0.0 | 3.2 | 0.00 | 0.00 | 0.00 | 82 | 1018.9 |
| 20260506152145 | 13 | 100 | 0.0 | 1.6 | 0.00 | 0.00 | 0.00 | 84 | 1018.9 |
| 20260506151145 | 13 | 86 | 0.0 | 1.6 | 0.00 | 0.00 | 0.00 | 86 | 1018.8 |
| 20260506150152 | 13 | 85 | 0.0 | 3.2 | 0.00 | 0.00 | 0.00 | 87 | 1018.9 |
| 20260506145124 | 13 | 94 | 0.0 | 1.6 | 0.00 | 0.00 | 0.00 | 88 | 1018.8 |
| 20260506144129 | 12 | 80 | 0.0 | 1.6 | 0.00 | 0.00 | 0.00 | 89 | 1018.7 |
| 20260506141942 | 12 | 33 | 0.0 | 0.0 | 0.00 | 0.00 | 0.00 | 90 | 1018.5 |
| 20260506141006 | 12 | 30 | 0.0 | 0.0 | 0.00 | 0.00 | 0.00 | 90 | 1018.6 |
| 20260506135943 | 12 | 30 | 0.0 | 0.0 | 0.00 | 0.00 | 0.00 | 90 | 1018.4 |
| 20260506134918 | 12 | 30 | 0.0 | 0.0 | 0.00 | 0.00 | 0.00 | 89 | 1018.2 |
| 20260506133910 | 12 | 30 | 0.0 | 0.0 | 0.00 | 0.00 | 0.00 | 89 | 1018.3 |
| 20260506132852 | 12 | 30 | 0.0 | 0.0 | 0.00 | 0.00 | 0.00 | 89 | 1018.2 |
| 20260506131824 | 12 | 30 | 0.0 | 0.0 | 0.00 | 0.00 | 0.00 | 89 | 1018.2 |
| 20260506125650 | 12 | 30 | 0.0 | 0.0 | 0.00 | 0.00 | 0.00 | 89 | 1018.0 |
| 20260506122350 | 12 | 30 | 0.0 | 0.0 | 0.00 | 0.00 | 0.00 | 89 | 1018.0 |
| 20260506121321 | 12 | 30 | 0.0 | 0.0 | 0.00 | 0.00 | 0.00 | 89 | 1017.8 |
| 20260506120303 | 12 | 30 | 0.0 | 0.0 | 0.00 | 0.00 | 0.00 | 89 | 1017.8 |
| 20260506115307 | 12 | 30 | 0.0 | 0.0 | 0.00 | 0.00 | 0.00 | 89 | 1017.8 |
| 20260506114327 | 12 | 30 | 0.0 | 0.0 | 0.00 | 0.00 | 0.00 | 89 | 1017.7 |
| 20260506112208 | 12 | 30 | 0.0 | 0.0 | 0.00 | 0.00 | 0.00 | 90 | 1017.5 |
| 20260506111226 | 12 | 30 | 0.0 | 0.0 | 0.00 | 0.00 | 0.00 | 89 | 1017.4 |
| 20260506110210 | 12 | 32 | 0.0 | 0.0 | 0.00 | 0.00 | 0.00 | 89 | 1017.4 |
| 20260506105217 | 12 | 32 | 0.0 | 0.0 | 0.00 | 0.00 | 0.00 | 89 | 1017.4 |
| 20260506103059 | 11 | 32 | 0.0 | 0.0 | 0.00 | 0.00 | 0.00 | 89 | 1017.4 |
| 20260506102120 | 11 | 33 | 0.0 | 0.0 | 0.00 | 0.00 | 0.00 | 89 | 1017.2 |
| 20260506101143 | 11 | 33 | 0.0 | 0.0 | 0.00 | 0.00 | 0.00 | 89 | 1017.2 |
| 20260506095041 | 11 | 33 | 0.0 | 0.0 | 0.00 | 0.00 | 0.00 | 89 | 1017.3 |
| 20260506094031 | 11 | 32 | 0.0 | 0.0 | 0.00 | 0.00 | 0.00 | 89 | 1017.2 |
| 20260506093033 | 11 | 32 | 0.0 | 0.0 | 0.00 | 0.00 | 0.00 | 89 | 1017.3 |
| 20260506090833 | 11 | 58 | 0.0 | 0.0 | 0.00 | 0.00 | 0.00 | 89 | 1017.3 |
| 20260506085824 | 11 | 52 | 0.0 | 0.0 | 0.00 | 0.00 | 0.00 | 89 | 1017.1 |
| 20260506084757 | 11 | 53 | 0.0 | 0.0 | 0.00 | 0.03 | 0.00 | 89 | 1017.1 |
| 20260506083751 | 11 | 51 | 0.0 | 0.0 | 0.00 | 0.03 | 0.00 | 89 | 1017.1 |
| 20260506081636 | 11 | 49 | 0.0 | 0.0 | 0.00 | 0.05 | 0.00 | 89 | 1017.3 |
| 20260506080617 | 11 | 49 | 0.0 | 0.0 | 0.00 | 0.10 | 0.00 | 88 | 1017.3 |
| 20260506072633 | 12 | 55 | 0.0 | 0.0 | 0.00 | 0.20 | 0.00 | 88 | 1017.1 |
| 20260506071612 | 12 | 55 | 0.0 | 0.0 | 0.00 | 0.20 | 0.00 | 88 | 1016.9 |
| 20260506070614 | 12 | 61 | 0.0 | 0.0 | 0.00 | 0.25 | 0.00 | 88 | 1016.8 |
| 20260506061433 | 12 | 125 | 0.0 | 1.6 | 0.00 | 0.28 | 0.25 | 88 | 1016.4 |
| 20260506060457 | 12 | 294 | 0.0 | 0.0 | 0.00 | 0.30 | 0.25 | 88 | 1016.5 |
| 20260506050425 | 12 | 306 | 0.0 | 0.0 | 0.00 | 0.36 | 0.25 | 87 | 1016.2 |
| 20260506043208 | 12 | 32 | 0.0 | 0.0 | 0.00 | 0.41 | 0.25 | 87 | 1015.8 |
| 20260506041006 | 12 | 24 | 0.0 | 0.0 | 0.00 | 0.41 | 0.25 | 86 | 1015.6 |
| 20260506040029 | 12 | 23 | 0.0 | 0.0 | 0.00 | 0.41 | 0.25 | 86 | 1015.6 |
| 20260506035000 | 12 | 5 | 0.0 | 0.0 | 0.00 | 0.41 | 0.25 | 86 | 1015.4 |
| 20260506033927 | 13 | 57 | 0.0 | 0.0 | 0.00 | 0.41 | 0.25 | 85 | 1015.3 |
| 20260506032859 | 13 | 143 | 0.0 | 0.0 | 0.00 | 0.41 | 0.25 | 85 | 1015.1 |
| 20260506031921 | 13 | 98 | 0.0 | 0.0 | 0.00 | 0.41 | 0.25 | 84 | 1014.9 |
| 20260506030925 | 13 | 170 | 0.0 | 1.6 | 0.00 | 0.41 | 0.25 | 84 | 1014.7 |
| 20260506025853 | 13 | 157 | 0.0 | 0.0 | 0.00 | 0.41 | 0.25 | 83 | 1014.6 |
| 20260506023752 | 13 | 72 | 0.0 | 0.0 | 0.00 | 0.41 | 0.25 | 82 | 1014.5 |
| 20260506022727 | 14 | 78 | 0.0 | 0.0 | 0.00 | 0.41 | 0.25 | 82 | 1014.5 |
| 20260506020602 | 14 | 78 | 0.0 | 3.2 | 0.00 | 0.41 | 0.25 | 82 | 1014.2 |
| 20260506015536 | 14 | 167 | 0.0 | 0.0 | 0.00 | 0.41 | 0.25 | 81 | 1014.0 |
| 20260506013417 | 15 | 55 | 0.0 | 0.0 | 0.00 | 0.41 | 0.25 | 82 | 1013.9 |
| 20260506012421 | 15 | 181 | 0.0 | 6.4 | 0.00 | 0.41 | 0.25 | 81 | 1014.0 |
| 20260506011349 | 15 | 84 | 0.0 | 6.4 | 0.00 | 0.41 | 0.25 | 82 | 1014.0 |
| 20260506010338 | 15 | 38 | 0.0 | 4.8 | 0.00 | 0.41 | 0.25 | 82 | 1014.0 |
| 20260506004217 | 15 | 173 | 0.0 | 4.8 | 0.00 | 0.41 | 0.25 | 81 | 1013.9 |
| 20260506003205 | 15 | 121 | 0.0 | 4.8 | 0.00 | 0.41 | 0.25 | 81 | 1013.9 |
| 20260506002147 | 15 | 161 | 0.0 | 4.8 | 0.00 | 0.41 | 0.25 | 81 | 1013.9 |
| 20260506001200 | 15 | 296 | 0.0 | 8.0 | 0.00 | 0.41 | 0.25 | 82 | 1013.7 |
| 20260506000150 | 15 | 149 | 0.0 | 8.0 | 0.00 | 0.41 | 0.25 | 83 | 1013.7 |
| 20260505235121 | 15 | 177 | 0.0 | 4.8 | 0.00 | 0.41 | 0.25 | 83 | 1013.8 |
| 20260505234047 | 15 | 184 | 0.0 | 4.8 | 0.00 | 0.41 | 0.25 | 82 | 1013.8 |
| 20260505233036 | 15 | 171 | 0.0 | 4.8 | 0.00 | 0.41 | 0.25 | 82 | 1013.7 |
| 20260505232037 | 15 | 166 | 0.0 | 3.2 | 0.00 | 0.41 | 0.25 | 82 | 1013.8 |
| 20260505231100 | 15 | 88 | 0.0 | 3.2 | 0.00 | 0.41 | 0.25 | 82 | 1013.8 |
| 20260505230114 | 16 | 96 | 0.0 | 1.6 | 0.00 | 0.41 | 0.25 | 82 | 1013.8 |
| 20260505225102 | 15 | 92 | 0.0 | 3.2 | 0.00 | 0.41 | 0.25 | 83 | 1013.8 |
| 20260505224056 | 15 | 150 | 0.0 | 4.8 | 0.00 | 0.41 | 0.25 | 83 | 1013.8 |
| 20260505223041 | 15 | 138 | 0.0 | 1.6 | 0.00 | 0.41 | 0.25 | 82 | 1013.8 |
| 20260505222043 | 16 | 45 | 0.0 | 1.6 | 0.00 | 0.41 | 0.25 | 83 | 1013.9 |
| 20260505221034 | 15 | 138 | 0.0 | 8.0 | 0.00 | 0.41 | 0.25 | 81 | 1013.8 |
| 20260505220042 | 16 | 163 | 0.0 | 8.0 | 0.00 | 0.41 | 0.25 | 82 | 1013.9 |
| 20260505215041 | 16 | 173 | 0.0 | 6.4 | 0.00 | 0.41 | 0.25 | 81 | 1013.9 |
| 20260505214047 | 15 | 195 | 0.0 | 6.4 | 0.00 | 0.41 | 0.25 | 83 | 1013.9 |
| 20260505213027 | 15 | 196 | 0.0 | 4.8 | 0.00 | 0.41 | 0.25 | 84 | 1014.0 |
| 20260505210830 | 15 | 188 | 0.0 | 4.8 | 0.00 | 0.41 | 0.25 | 85 | 1014.0 |
| 20260505205836 | 15 | 154 | 0.0 | 6.4 | 0.00 | 0.41 | 0.25 | 86 | 1014.0 |
| 20260505204847 | 15 | 177 | 0.0 | 6.4 | 0.00 | 0.41 | 0.25 | 85 | 1014.1 |
| 20260505203842 | 15 | 185 | 0.0 | 3.2 | 0.00 | 0.41 | 0.25 | 85 | 1014.1 |
| 20260505202816 | 14 | 146 | 0.0 | 0.0 | 0.00 | 0.41 | 0.25 | 86 | 1014.1 |
| 20260505201840 | 14 | 18 | 0.0 | 0.0 | 0.00 | 0.41 | 0.25 | 87 | 1014.2 |